Regional Weather Roundup
Issued by NWS

Home | Current Version | Previous Version | Graphics & Text | Print | Product List | Glossary On
Versions: 1 2 3 4 5 6 7 8 9 10 11 12 13 14 15 16 17 18 19 20 21 22 23 24 25 26 27 28 29 30 31 32 33 34 35 36 37 38 39 40 41 42 43 44 45 46 47 48 49 50
000
ASUS43 KLOT 231200
RWRIL

ILLINOIS REGIONAL WEATHER ROUNDUP
NATIONAL WEATHER SERVICE CHICAGO/ROMEOVILLE IL
600 AM CST SUN NOV 23 2014

NOTE: "FAIR" INDICATES FEW OR NO CLOUDS BELOW 12,000 FEET WITH NO
SIGNIFICANT WEATHER AND/OR OBSTRUCTIONS TO VISIBILITY.

* THESE STATIONS ARE NOT UNDER NWS QUALITY CONTROL. THEY ALSO MAY NOT
  REPORT WEATHER SUCH AS PRECIPITATION OR FOG.

ILZ001-002-007-009-015-016-024-231300-
NORTHWEST ILLINOIS

CITY           SKY/WX    TMP DP  RH WIND       PRES   REMARKS
MOLINE         CLOUDY    51  47  86 S10       29.66F
6HR MIN TEMP:  51; 6HR MAX TEMP:  53;

STERLING*      CLOUDY    50  46  87 S6        29.70R
$$

ILZ003-004-008-010-011-017-018-231300-
NORTH CENTRAL ILLINOIS

CITY           SKY/WX    TMP DP  RH WIND       PRES   REMARKS
ROCKFORD       CLOUDY    48  46  93 S9        29.72F
6HR MIN TEMP:  48; 6HR MAX TEMP:  50; 6HR PCP: TRACE;

DE KALB*       CLOUDY    45  43  93 S12       29.73F
$$

ILZ005-006-012>014-019>023-231300-
NORTHEAST ILLINOIS

CITY           SKY/WX    TMP DP  RH WIND       PRES   REMARKS
CHICAGO-OHARE  CLOUDY    48  42  80 S9        29.74F
6HR MIN TEMP:  48; 6HR MAX TEMP:  52;

CHICAGO-MIDWAY CLOUDY    51  43  74 S10       29.76F
6HR MIN TEMP:  50; 6HR MAX TEMP:  52;

AURORA         MOCLDY    46  41  82 S9        29.75S
6HR MIN TEMP:  45; 6HR MAX TEMP:  52;

WAUKEGAN       CLOUDY    49  44  83 S10       29.72F
6HR MIN TEMP:  49; 6HR MAX TEMP:  50; 6HR PCP: TRACE;

DUPAGE AIRPORT MOCLDY    47  42  83 S10       29.74F
6HR MIN TEMP:  47; 6HR MAX TEMP:  50;

WHEELING       CLOUDY    48  43  82 S9        29.76F
6HR MIN TEMP:  48; 6HR MAX TEMP:  52;

NORTHERLY ISL    N/A     50  41  71 SW12        N/A
$$

LMZ740>746-231300-
SOUTHERN LAKE MICHIGAN

STATION/POSITION SKY/WX   TEMP    WIND        PRES    VSBY  WAVE
                          AIR SEA DIR/SP/G                  HT/PER
                          (F)     (DEG/KT/KT) (MB)    (MI)  (FT/S)
SOUTHERN BUOY              45 43  170/ 17/ 21 1008.2F         3/ 4
WAUKEGAN HARBOR            50     210/ 12/ 16   N/A
HARRISON CRIB              49     180/ 22/ 24   N/A
BURNHAM HARBOR             50     180/ 15/ 17   N/A
CALUMET HARBOR             50     170/ 12/ 17 1006.9F
MICHIGAN CITY              49     140/ 15/ 22   N/A
$$

ILZ025>027-034>036-040-047-049-050-058-095>099-231300-
WEST-CENTRAL ILLINOIS

CITY           SKY/WX    TMP DP  RH WIND       PRES   REMARKS
QUINCY         LGT RAIN  51  48  89 S13       29.67S FOG
$$

ILZ028>032-037-038-041>044-048-051>054-059>061-231300-
CENTRAL ILLINOIS

CITY           SKY/WX    TMP DP  RH WIND       PRES   REMARKS
DECATUR        CLOUDY    50  43  77 S15       29.79S
PEORIA         MOCLDY    51  43  74 S13       29.73S
6HR MIN TEMP:  51; 6HR MAX TEMP:  54;

SPRINGFIELD    CLOUDY    54  45  71 S18G28    29.75R
6HR MIN TEMP:  51; 6HR MAX TEMP:  54;

TAYLORVILLE    NOT AVBL
$$

ILZ033-039-045-046-055>057-062-063-231300-
EAST-CENTRAL ILLINOIS

CITY           SKY/WX    TMP DP  RH WIND       PRES   REMARKS
CHAMPAIGN      CLOUDY    48  42  80 SE14      29.81S
MATTOON        MOCLDY    48  41  76 S16       29.80F
$$

ILZ079-100>102-231300-
SOUTHWEST ILLINOIS

CITY           SKY/WX    TMP DP  RH WIND       PRES   REMARKS
CAHOKIA*       CLOUDY    52  45  77 SE8       29.75F
$$

ILZ064>066-069>071-074>076-080>082-084>086-088>090-092>094-231300-
SOUTH-CENTRAL ILLINOIS

CITY           SKY/WX    TMP DP  RH WIND       PRES   REMARKS
CARBONDALE     CLOUDY    54  46  74 SE9       29.80F
6HR MIN TEMP:  51; 6HR MAX TEMP:  55;

MT. VERNON     CLOUDY    52  43  71 SE7       29.82F
$$

ILZ067-068-072-073-078-083-087-091-231300-
SOUTHEAST ILLINOIS

CITY           SKY/WX    TMP DP  RH WIND       PRES   REMARKS
LAWRENCEVILLE  PTCLDY    50  41  71 S14       29.87F
$$

ABBREVIATIONS USED IN REMARKS
   TC - TEMPERATURE IN CELSIUS
  WCI - WIND CHILL INDEX
   HX - HEAT INDEX
  VSB - VISIBILITY
$$




USA.gov is the U.S. government's official web portal to all federal, state and local government web resources and services.